Regional Weather Roundup
Issued by NWS

Home | Current Version | Previous Version | Text Only | Print | Product List | Glossary On
Versions: 1 2 3 4 5 6 7 8 9 10 11 12 13 14 15 16 17 18 19 20 21 22 23 24 25 26 27 28 29 30 31 32 33 34 35 36 37 38 39 40 41 42 43 44 45 46 47 48 49 50
000
ASUS43 KOAX 171510
RWRNE

WEATHER ROUNDUP FOR NEBRASKA
NATIONAL WEATHER SERVICE OMAHA NE
1000 AM CDT THU APR 17 2014

NOTES: SATELLITE DATA IS BEING USED TO AUGMENT CLOUD COVER ABOVE
       12000 FEET.
       "FAIR" INDICATES FEW OR NO CLOUDS BELOW 12,000 FEET WITH NO
       SIGNIFICANT WEATHER AND/OR OBSTRUCTIONS TO VISIBILITY.

  * THESE STATIONS DO NOT REPORT WEATHER SUCH AS RAIN...SNOW OR FOG.

NEZ001>004-019>022-054>056-171600-
NEBRASKA PANHANDLE

CITY           SKY/WX    TMP DP  RH WIND       PRES   REMARKS
SCOTTSBLUFF    CLOUDY    37  32  82 S8        30.15F WCI  31
ALLIANCE       CLOUDY    35  29  78 S17       30.15F WCI  25
CHADRON        CLOUDY    37  31  78 S15       30.16S WCI  28
KIMBALL        FOG       33  32  96 S10       30.11F VSB<1/4 WCI  24
SIDNEY         FOG       32  31  96 S13       30.16F VSB 1/2 WCI  22
$$

NEZ057>060-069>072-079>082-171600-
SOUTHWEST NEBRASKA

CITY           SKY/WX    TMP DP  RH WIND       PRES   REMARKS
NORTH PLATTE   CLOUDY    32  23  69 E6        30.28S WCI  26
IMPERIAL       CLOUDY    31  27  85 E9        30.25S FOG     WCI  23
LEXINGTON      CLOUDY    31  25  79 E6        30.31S WCI  25
MCCOOK         CLOUDY    32  25  75 NE8       30.31R WCI  25
OGALLALA       CLOUDY    32  27  80 SE7       30.24R WCI  26
$$

NEZ005>010-023>029-035>040-094-171600-
NORTH CENTRAL NEBRASKA

CITY           SKY/WX    TMP DP  RH WIND       PRES   REMARKS
VALENTINE      CLOUDY    32  22  66 E5        30.26S WCI  27
AINSWORTH      SUNNY     33  24  70 E3        30.27S
BROKEN BOW     SUNNY     33  24  69 E8        30.29S WCI  26
O`NEILL        SUNNY     33  21  60 NE6       30.32R WCI  28
ORD            SUNNY     34  22  61 N5        30.31S WCI  30
THEDFORD       SUNNY     33  23  66 E5        30.26R WCI  29
$$

NEZ041-046>049-061>064-073>077-083>087-171600-
SOUTH CENTRAL NEBRASKA

CITY           SKY/WX    TMP DP  RH WIND       PRES   REMARKS
GRAND ISLAND   MOSUNNY   36  25  64 N9        30.31S WCI  29
AURORA         MOSUNNY   36  26  66 N8        30.31R WCI  29
HASTINGS       MOSUNNY   36  25  64 NE10      30.30S WCI  28
HEBRON         CLOUDY    36  26  66 NE8       30.33F WCI  30
HOLDREGE       CLOUDY    32  25  76 NE7       30.30S WCI  26
KEARNEY *      CLOUDY    32  25  74 N10       30.31S WCI  24
YORK           MOSUNNY   36  25  64 N10G17    30.31S WCI  28
$$

NEZ011>018-030>034-042>045-171600-
NORTHEAST NEBRASKA

CITY           SKY/WX    TMP DP  RH WIND       PRES   REMARKS
NORFOLK        SUNNY     35  23  61 N13       30.31S WCI  26
ALBION         SUNNY     34  23  63 N9        30.31F WCI  27
BLAIR          CLOUDY    33  24  69 NW10G18   30.30S WCI  25
COLUMBUS *     SUNNY     37  21  52 N12G17    30.32S WCI  30
FREMONT        SUNNY     37  25  60 N14       30.31F WCI  29
TEKAMAH        CLOUDY    36  24  62 NW8       30.32S WCI  30
$$

NEZ050>053-065>068-078-088>093-171600-
SOUTHEAST NEBRASKA

CITY           SKY/WX    TMP DP  RH WIND       PRES   REMARKS
LINCOLN        PTSUNNY   37  24  59 CALM      30.35R
OMAHA EPPLEY   PTSUNNY   35  24  64 NW14      30.34R WCI  26
BEATRICE       CLOUDY    35  26  68 N7        30.33S WCI  29
FALLS CITY     CLOUDY    36  27  69 N10       30.31S WCI  28
NEBRASKA CITY  CLOUDY    34  26  74 N8        30.34R WCI  27
PLATTSMOUTH    CLOUDY    35  25  66 N7        30.34R WCI  29
$$

NEZ044-045-051>053-067-171600-
OMAHA AREA

CITY           SKY/WX    TMP DP  RH WIND       PRES   REMARKS
OMAHA EPPLEY   PTSUNNY   35  24  64 NW14      30.34R WCI  26
BLAIR          CLOUDY    33  24  69 NW10G18   30.30S WCI  25
FREMONT        SUNNY     37  25  60 N14       30.31F WCI  29
MILLARD        CLOUDY    34  25  68 CALM      30.33R
OFFUTT AFB     PTSUNNY   35  26  69 N8        30.34R WCI  28
PLATTSMOUTH    CLOUDY    35  25  66 N7        30.34R WCI  29
WAHOO          FAIR      36  23  59 N14G21    30.32R WCI  27
$$



USA.gov is the U.S. government's official web portal to all federal, state and local government web resources and services.